This is the latest recevied weather packets stored in our database for station/object S56WDN-10. If no packets are shown the sender has not sent any weather packets the latest 10 day(s).
| Time | Temp. | Humidity | Pressure | Rain* | Wind** | Luminosity | Snow |
|---|---|---|---|---|---|---|---|
| 1777531633 | 3.89° C | 86% | 1027.5 hPa | 0 mm | - | - | - |
| 1777531033 | 3.33° C | 88% | 1027.5 hPa | 0 mm | - | - | - |
| 1777530733 | 3.33° C | 89% | 1027.5 hPa | 0 mm | - | - | - |
| 1777530433 | 2.78° C | 89% | 1027.5 hPa | 0 mm | - | - | - |
| 1777530133 | 2.78° C | 90% | 1027.5 hPa | 0 mm | - | - | - |
| 1777529833 | 2.78° C | 91% | 1027.5 hPa | 0 mm | - | - | - |
| 1777529533 | 2.22° C | 91% | 1027.6 hPa | 0 mm | - | - | - |
| 1777529233 | 2.22° C | 90% | 1027.5 hPa | 0 mm | - | - | - |
| 1777528933 | 1.67° C | 90% | 1027.3 hPa | 0 mm | - | - | - |
| 1777528633 | 1.67° C | 90% | 1027.4 hPa | 0 mm | - | - | - |
| 1777528333 | 1.67° C | 90% | 1027.4 hPa | 0 mm | - | - | - |
| 1777528033 | 1.11° C | 90% | 1027.1 hPa | 0 mm | - | - | - |
| 1777527733 | 1.11° C | 90% | 1027.2 hPa | 0 mm | - | - | - |
| 1777527433 | 1.11° C | 90% | 1027.3 hPa | 0 mm | - | - | - |
| 1777527133 | 1.11° C | 90% | 1027.3 hPa | 0 mm | - | - | - |
| 1777526833 | 1.11° C | 90% | 1027.3 hPa | 0 mm | - | - | - |
| 1777526533 | 0.56° C | 90% | 1027.2 hPa | 0 mm | - | - | - |
| 1777526233 | 0.56° C | 90% | 1027.2 hPa | 0 mm | - | - | - |
| 1777525933 | 0.56° C | 90% | 1027.2 hPa | 0 mm | - | - | - |
| 1777525633 | 0.56° C | 90% | 1027.1 hPa | 0 mm | - | - | - |
| 1777525333 | 0.56° C | 90% | 1027.2 hPa | 0 mm | - | - | - |
| 1777525033 | 0.56° C | 90% | 1027.2 hPa | 0 mm | - | - | - |
| 1777524733 | 0.56° C | 90% | 1027.2 hPa | 0 mm | - | - | - |
| 1777524433 | 0.56° C | 90% | 1027.1 hPa | 0 mm | - | - | - |
| 1777524133 | 0.56° C | 90% | 1026.9 hPa | 0 mm | - | - | - |
* Rain latest hour (hover to see other rain measurements)
** Current wind speed in m/s (hover to see current wind gust speed)